Time,TemperatureF,DewpointF,PressureIn,WindDirection,WindDirectionDegrees,WindSpeedMPH,WindSpeedGustMPH,Humidity,HourlyPrecipIn,Conditions,Clouds,dailyrainin,SoftwareType,DateUTC
2013-04-21 00:00:00,29.3,19.0,27.56,North,358,2.0,4.0,65,0.00,,,-99.99,Weather View 32 v60,2013-04-21 04:00:00,
2013-04-21 00:20:00,28.7,18.8,27.57,North,358,0.0,4.0,66,0.00,,,-99.99,Weather View 32 v60,2013-04-21 04:20:00,
2013-04-21 00:40:00,27.9,18.4,27.58,North,358,0.0,4.0,67,0.00,,,-99.99,Weather View 32 v60,2013-04-21 04:40:00,
2013-04-21 01:00:00,27.4,18.2,27.58,North,358,0.0,3.0,68,0.00,,,-99.99,Weather View 32 v60,2013-04-21 05:00:00,
2013-04-21 01:20:00,27.1,0.0,27.59,North,358,0.0,3.0,0,0.00,,,-99.99,Weather View 32 v60,2013-04-21 05:20:00,
2013-04-21 01:40:00,26.5,18.0,27.59,North,358,0.0,3.0,70,0.00,,,-99.99,Weather View 32 v60,2013-04-21 05:40:00,
2013-04-21 02:00:00,26.2,18.1,27.59,North,358,0.0,2.0,71,0.00,,,-99.99,Weather View 32 v60,2013-04-21 06:00:00,
2013-04-21 02:20:00,25.2,17.8,27.59,North,358,0.0,1.0,73,0.00,,,-99.99,Weather View 32 v60,2013-04-21 06:20:00,
2013-04-21 02:40:00,24.6,17.5,27.60,North,358,0.0,1.0,74,0.00,,,-99.99,Weather View 32 v60,2013-04-21 06:40:00,
2013-04-21 03:00:00,24.0,17.5,27.60,North,358,0.0,1.0,76,0.00,,,-99.99,Weather View 32 v60,2013-04-21 07:00:00,
2013-04-21 03:20:00,23.5,17.7,27.60,North,358,0.0,2.0,78,0.00,,,-99.99,Weather View 32 v60,2013-04-21 07:20:00,
2013-04-21 03:40:00,23.6,18.0,27.61,North,358,0.0,2.0,79,0.00,,,-99.99,Weather View 32 v60,2013-04-21 07:40:00,
2013-04-21 04:00:00,23.5,17.7,27.61,North,358,0.0,2.0,78,0.00,,,-99.99,Weather View 32 v60,2013-04-21 08:00:00,
2013-04-21 04:01:00,23.5,17.7,27.61,North,358,0.0,2.0,78,0.00,,,-99.99,Weather View 32 v60,2013-04-21 08:01:00,
2013-04-21 04:20:00,22.6,17.7,27.62,North,358,0.0,2.0,81,0.00,,,-99.99,Weather View 32 v60,2013-04-21 08:20:00,
2013-04-21 04:40:00,22.6,18.2,27.63,North,358,0.0,2.0,83,0.00,,,-99.99,Weather View 32 v60,2013-04-21 08:40:00,
2013-04-21 05:00:00,22.2,17.5,27.63,North,358,1.0,1.0,82,0.00,,,-99.99,Weather View 32 v60,2013-04-21 09:00:00,
2013-04-21 05:02:00,22.2,17.5,27.63,North,358,1.0,1.0,82,0.00,,,-99.99,Weather View 32 v60,2013-04-21 09:02:00,
2013-04-21 05:20:00,21.6,17.0,27.64,North,358,0.0,1.0,82,0.00,,,-99.99,Weather View 32 v60,2013-04-21 09:20:00,
2013-04-21 05:40:00,21.7,17.3,27.65,North,358,1.0,2.0,83,0.00,,,-99.99,Weather View 32 v60,2013-04-21 09:40:00,
2013-04-21 06:00:00,21.6,17.0,27.65,North,358,0.0,2.0,82,0.00,,,-99.99,Weather View 32 v60,2013-04-21 10:00:00,
2013-04-21 06:02:00,21.6,17.0,27.65,North,358,0.0,2.0,82,0.00,,,-99.99,Weather View 32 v60,2013-04-21 10:02:00,
2013-04-21 06:20:00,21.1,17.0,27.66,North,358,0.0,2.0,84,0.00,,,-99.99,Weather View 32 v60,2013-04-21 10:20:00,
2013-04-21 06:40:00,21.1,17.3,27.67,North,358,0.0,2.0,85,0.00,,,-99.99,Weather View 32 v60,2013-04-21 10:40:00,
2013-04-21 07:00:00,21.8,18.0,27.68,North,358,0.0,1.0,85,0.00,,,-99.99,Weather View 32 v60,2013-04-21 11:00:00,
2013-04-21 07:03:00,21.8,18.0,27.68,North,358,0.0,1.0,85,0.00,,,-99.99,Weather View 32 v60,2013-04-21 11:03:00,
2013-04-21 07:20:00,23.5,19.1,27.69,NNE,32,1.0,3.0,83,0.00,,,-99.99,Weather View 32 v60,2013-04-21 11:20:00,
2013-04-21 07:40:00,28.6,22.3,27.70,NNE,32,0.0,3.0,77,0.00,,,-99.99,Weather View 32 v60,2013-04-21 11:40:00,
2013-04-21 08:00:00,34.1,23.9,27.71,East,83,1.0,3.0,66,0.00,,,-99.99,Weather View 32 v60,2013-04-21 12:00:00,
2013-04-21 08:20:00,36.6,22.4,27.72,East,91,2.0,7.0,56,0.00,,,-99.99,Weather View 32 v60,2013-04-21 12:20:00,
2013-04-21 08:40:00,38.5,21.5,27.72,NNW,327,1.0,7.0,50,0.00,,,-99.99,Weather View 32 v60,2013-04-21 12:40:00,
2013-04-21 09:00:00,40.0,21.4,27.72,SW,231,1.0,7.0,47,0.00,,,-99.99,Weather View 32 v60,2013-04-21 13:00:00,
2013-04-21 09:20:00,42.0,21.1,27.72,NE,56,3.0,9.0,43,0.00,,,-99.99,Weather View 32 v60,2013-04-21 13:20:00,
2013-04-21 09:40:00,42.0,19.4,27.72,South,187,1.0,9.0,40,0.00,,,-99.99,Weather View 32 v60,2013-04-21 13:40:00,
2013-04-21 10:00:00,44.2,22.0,27.73,SSE,151,0.0,9.0,41,0.00,,,-99.99,Weather View 32 v60,2013-04-21 14:00:00,
2013-04-21 10:05:00,44.2,22.0,27.73,SSE,151,0.0,9.0,41,0.00,,,-99.99,Weather View 32 v60,2013-04-21 14:05:00,
2013-04-21 10:20:00,42.9,19.6,27.73,SSE,164,3.0,9.0,39,0.00,,,-99.99,Weather View 32 v60,2013-04-21 14:20:00,
2013-04-21 10:40:00,46.5,19.6,27.73,South,172,0.0,9.0,34,0.00,,,-99.99,Weather View 32 v60,2013-04-21 14:40:00,
2013-04-21 11:00:00,47.3,20.3,27.73,SE,129,2.0,9.0,34,0.00,,,-99.99,Weather View 32 v60,2013-04-21 15:00:00,
2013-04-21 11:05:00,47.3,20.3,27.73,SE,129,2.0,9.0,34,0.00,,,-99.99,Weather View 32 v60,2013-04-21 15:05:00,
2013-04-21 11:20:00,49.8,21.1,27.73,ESE,117,1.0,9.0,32,0.00,,,-99.99,Weather View 32 v60,2013-04-21 15:20:00,
2013-04-21 11:40:00,47.1,20.8,27.73,SSE,163,3.0,9.0,35,0.00,,,-99.99,Weather View 32 v60,2013-04-21 15:40:00,
2013-04-21 12:00:00,49.5,21.5,27.72,West,260,1.0,9.0,33,0.00,,,-99.99,Weather View 32 v60,2013-04-21 16:00:00,
2013-04-21 12:06:00,49.5,21.5,27.72,West,260,1.0,9.0,33,0.00,,,-99.99,Weather View 32 v60,2013-04-21 16:06:00,
2013-04-21 12:20:00,51.3,20.9,27.72,SW,225,4.0,9.0,30,0.00,,,-99.99,Weather View 32 v60,2013-04-21 16:20:00,
2013-04-21 12:40:00,51.0,22.1,27.72,South,176,1.0,9.0,32,0.00,,,-99.99,Weather View 32 v60,2013-04-21 16:40:00,
2013-04-21 13:00:00,48.2,20.4,27.71,SW,231,6.0,10.0,33,0.00,,,-99.99,Weather View 32 v60,2013-04-21 17:00:00,
2013-04-21 13:06:00,48.2,20.4,27.71,SW,231,6.0,10.0,33,0.00,,,-99.99,Weather View 32 v60,2013-04-21 17:06:00,
2013-04-21 13:20:00,52.8,16.9,27.70,North,7,4.0,10.0,24,0.00,,,-99.99,Weather View 32 v60,2013-04-21 17:20:00,
2013-04-21 13:40:00,54.8,19.6,27.70,NE,37,5.0,10.0,25,0.00,,,-99.99,Weather View 32 v60,2013-04-21 17:40:00,
2013-04-21 14:00:00,53.0,-33.4,27.69,NNE,33,4.0,10.0,2,0.00,,,-99.99,Weather View 32 v60,2013-04-21 18:00:00,
2013-04-21 14:07:00,53.0,-33.4,27.69,NNE,33,4.0,10.0,2,0.00,,,-99.99,Weather View 32 v60,2013-04-21 18:07:00,
2013-04-21 14:20:00,54.9,19.7,27.69,WSW,242,4.0,10.0,25,0.00,,,-99.99,Weather View 32 v60,2013-04-21 18:20:00,
2013-04-21 14:40:00,53.8,16.8,27.68,North,5,5.0,11.0,23,0.00,,,-99.99,Weather View 32 v60,2013-04-21 18:40:00,
2013-04-21 15:00:00,53.5,25.1,27.68,South,174,7.0,11.0,33,0.00,,,-99.99,Weather View 32 v60,2013-04-21 19:00:00,
2013-04-21 15:07:00,53.5,25.1,27.68,South,174,7.0,11.0,33,0.00,,,-99.99,Weather View 32 v60,2013-04-21 19:07:00,
2013-04-21 15:20:00,55.6,19.3,27.67,NE,53,6.0,11.0,24,0.00,,,-99.99,Weather View 32 v60,2013-04-21 19:20:00,
2013-04-21 15:40:00,54.9,17.7,27.66,ENE,62,8.0,12.0,23,0.00,,,-99.99,Weather View 32 v60,2013-04-21 19:40:00,
2013-04-21 16:00:00,53.2,22.5,27.66,SW,224,1.0,12.0,30,0.00,,,-99.99,Weather View 32 v60,2013-04-21 20:00:00,
2013-04-21 16:08:00,53.2,22.5,27.66,SW,224,1.0,12.0,30,0.00,,,-99.99,Weather View 32 v60,2013-04-21 20:08:00,
2013-04-21 16:20:00,54.3,21.0,27.65,SSE,149,0.0,12.0,27,0.00,,,-99.99,Weather View 32 v60,2013-04-21 20:20:00,
2013-04-21 16:40:00,52.4,20.2,27.64,East,79,4.0,12.0,28,0.00,,,-99.99,Weather View 32 v60,2013-04-21 20:40:00,
2013-04-21 17:00:00,51.4,23.2,27.65,SSW,213,3.0,11.0,33,0.00,,,-99.99,Weather View 32 v60,2013-04-21 21:00:00,
2013-04-21 17:08:00,51.4,23.2,27.65,SSW,213,3.0,11.0,33,0.00,,,-99.99,Weather View 32 v60,2013-04-21 21:08:00,
2013-04-21 17:20:00,49.6,20.9,27.65,SSW,203,3.0,11.0,32,0.00,,,-99.99,Weather View 32 v60,2013-04-21 21:20:00,
2013-04-21 17:40:00,48.1,18.1,27.65,NW,308,3.0,13.0,30,0.00,,,-99.99,Weather View 32 v60,2013-04-21 21:40:00,
2013-04-21 18:00:00,47.1,16.4,27.66,South,189,8.0,13.0,29,0.00,,,-99.99,Weather View 32 v60,2013-04-21 22:00:00,
2013-04-21 18:09:00,47.1,16.4,27.66,South,189,8.0,13.0,29,0.00,,,-99.99,Weather View 32 v60,2013-04-21 22:09:00,
2013-04-21 18:20:00,46.2,16.4,27.66,NNW,328,2.0,13.0,30,0.00,,,-99.99,Weather View 32 v60,2013-04-21 22:20:00,
2013-04-21 18:40:00,45.7,15.2,27.66,South,187,8.0,14.0,29,0.00,,,-99.99,Weather View 32 v60,2013-04-21 22:40:00,
2013-04-21 19:00:00,46.3,15.7,27.66,SW,230,1.0,14.0,29,0.00,,,-99.99,Weather View 32 v60,2013-04-21 23:00:00,
2013-04-21 19:20:00,44.9,14.5,27.66,SSW,201,4.0,14.0,29,0.00,,,-99.99,Weather View 32 v60,2013-04-21 23:20:00,
2013-04-21 19:40:00,43.3,16.1,27.66,SSE,159,3.0,15.0,33,0.00,,,-99.99,Weather View 32 v60,2013-04-21 23:40:00,
2013-04-21 20:00:00,42.4,15.3,27.67,South,176,9.0,15.0,33,0.00,,,-99.99,Weather View 32 v60,2013-04-22 00:00:00,
2013-04-21 20:20:00,41.7,16.7,27.67,SSW,197,3.0,15.0,36,0.00,,,-99.99,Weather View 32 v60,2013-04-22 00:20:00,
2013-04-21 20:40:00,41.3,19.9,27.67,SW,221,3.0,14.0,42,0.00,,,-99.99,Weather View 32 v60,2013-04-22 00:40:00,
2013-04-21 21:00:00,40.3,20.6,27.68,SSW,194,7.0,14.0,45,0.00,,,-99.99,Weather View 32 v60,2013-04-22 01:00:00,
2013-04-21 21:20:00,39.1,21.5,27.68,South,171,12.0,17.0,49,0.00,,,-99.99,Weather View 32 v60,2013-04-22 01:20:00,
2013-04-21 21:40:00,38.6,20.6,27.69,South,188,8.0,18.0,48,0.00,,,-99.99,Weather View 32 v60,2013-04-22 01:40:00,
2013-04-21 22:00:00,38.1,19.6,27.69,SSE,166,11.0,18.0,47,0.00,,,-99.99,Weather View 32 v60,2013-04-22 02:00:00,
2013-04-21 22:20:00,37.6,18.2,27.70,South,172,9.0,18.0,45,0.00,,,-99.99,Weather View 32 v60,2013-04-22 02:20:00,
2013-04-21 22:40:00,37.1,19.2,27.69,South,180,5.0,16.0,48,0.00,,,-99.99,Weather View 32 v60,2013-04-22 02:40:00,
2013-04-21 23:00:00,36.7,19.3,27.69,SSW,197,5.0,16.0,49,0.00,,,-99.99,Weather View 32 v60,2013-04-22 03:00:00,
2013-04-21 23:20:00,36.7,19.8,27.69,South,172,13.0,15.0,50,0.00,,,-99.99,Weather View 32 v60,2013-04-22 03:20:00,
2013-04-21 23:40:00,36.9,20.4,27.69,SSE,165,10.0,16.0,51,0.00,,,-99.99,Weather View 32 v60,2013-04-22 03:40:00,